Torna al catalogo

STARLINK-31560

AttivoComunicazioniVLEO
NORAD 59361·PAYLOAD·🇺🇸 United States

Lanciato Mar 31, 2024 da Cape Canaveral Space Force Station

Loading…

Prossimi Passaggi (prossime 24 ore)

TLE

AggiornatoSource: CelesTrak SupGP

Epoca: Sep 15, 2026, 02:46 UTC

1 59361C 24060P   26258.11576389 -.00008547  00000+0 -30962-3 0  2585
2 59361  42.9991 270.2321 0001397 266.0209   8.7687 15.27578988    19

Traccia STARLINK-31560 in tempo reale con AllMySat

Download on the App Store